When you browse on this site, cookies collect data to enhance your experience and personalize the content and advertising you see.
Visit our Privacy Policy to learn more. By continuing to use the site, you agree to this use of cookies and data.
  • In Lithuania
  • List of Countries
  • For 7 days
  • Water Temperature
  • Satellite Maps
  • Weather Map
  • Weather Widgets
  • user-avatar
    Login

    Hourly Weather Malyy Mishkin

    Today, 21 May, Tuesday

    Time Temperature Precipitation Wind Pressure Humidity
    00:00 +16°C° 0 mm 3 mps 760 mmHg 52%
    01:00 +14°C° 0 mm 3 mps 760 mmHg 52%
    02:00 +14°C° 0 mm 3 mps 760 mmHg 53%
    03:00 +14°C° 0 mm 2 mps 759 mmHg 57%
    04:00 +14°C° 0 mm 2 mps 759 mmHg 59%
    05:00 +13°C° 0 mm 3 mps 760 mmHg 61%
    06:00 +13°C° 0 mm 3 mps 760 mmHg 63%
    07:00 +16°C° 0 mm 3 mps 760 mmHg 59%
    08:00 +18°C° 0 mm 3 mps 760 mmHg 54%
    09:00 +20°C° 0 mm 4 mps 760 mmHg 49%
    10:00 +21°C° 0 mm 4 mps 760 mmHg 46%
    11:00 +23°C° 0 mm 5 mps 760 mmHg 44%
    12:00 +25°C° 0 mm 5 mps 760 mmHg 42%
    13:00 +25°C° 0 mm 5 mps 760 mmHg 41%
    14:00 +25°C° 0 mm 5 mps 760 mmHg 41%
    15:00 +26°C° 0 mm 5 mps 760 mmHg 40%
    16:00 +25°C° 0 mm 4 mps 759 mmHg 44%
    17:00 +25°C° 0 mm 4 mps 759 mmHg 48%
    18:00 +24°C° 0 mm 3 mps 759 mmHg 51%
    19:00 +22°C° 0 mm 3 mps 759 mmHg 53%
    20:00 +20°C° 0 mm 4 mps 759 mmHg 54%
    21:00 +18°C° 0 mm 4 mps 758 mmHg 56%
    22:00 +18°C° 0 mm 4 mps 758 mmHg 55%
    23:00 +18°C° 0 mm 4 mps 758 mmHg 54%

    Tomorrow, 22 May, Wednesday

    Time Temperature Precipitation Wind Pressure Humidity
    00:00 +17°C° 0 mm 4 mps 758 mmHg 53%
    01:00 +17°C° 0 mm 4 mps 758 mmHg 53%
    02:00 +17°C° 0 mm 4 mps 758 mmHg 53%
    03:00 +16°C° 0 mm 5 mps 758 mmHg 54%
    04:00 +15°C° 0 mm 5 mps 758 mmHg 53%
    05:00 +15°C° 0 mm 5 mps 757 mmHg 52%
    06:00 +15°C° 0 mm 5 mps 757 mmHg 51%
    07:00 +16°C° 0 mm 6 mps 757 mmHg 49%
    08:00 +17°C° 0 mm 6 mps 757 mmHg 47%
    09:00 +17°C° 0 mm 7 mps 757 mmHg 45%
    10:00 +18°C° 0 mm 7 mps 756 mmHg 46%
    11:00 +21°C° 0 mm 7 mps 756 mmHg 46%
    12:00 +22°C° 0 mm 7 mps 756 mmHg 46%
    13:00 +21°C° 0.2 mm 6 mps 756 mmHg 54%
    14:00 +20°C° 0.2 mm 5 mps 755 mmHg 61%
    15:00 +20°C° 0.2 mm 4 mps 755 mmHg 68%
    16:00 +19°C° 2.4 mm 3 mps 755 mmHg 76%
    17:00 +18°C° 2.4 mm 3 mps 755 mmHg 83%
    18:00 +17°C° 2.4 mm 2 mps 754 mmHg 91%
    19:00 +17°C° 0.3 mm 2 mps 754 mmHg 90%
    20:00 +17°C° 0.3 mm 3 mps 754 mmHg 90%
    21:00 +16°C° 0.3 mm 3 mps 754 mmHg 89%
    22:00 +16°C° 0 mm 3 mps 754 mmHg 91%
    23:00 +16°C° 0 mm 2 mps 754 mmHg 92%

    Day after tomorrow, 23 May, Thursday

    Time Temperature Precipitation Wind Pressure Humidity
    00:00 +16°C° 0 mm 2 mps 754 mmHg 94%
    01:00 +15°C° 0 mm 2 mps 754 mmHg 95%
    02:00 +15°C° 0 mm 2 mps 753 mmHg 96%
    03:00 +15°C° 0 mm 2 mps 753 mmHg 97%
    04:00 +14°C° 0 mm 3 mps 753 mmHg 96%
    05:00 +14°C° 0 mm 3 mps 753 mmHg 94%
    06:00 +16°C° 0 mm 3 mps 753 mmHg 93%
    07:00 +17°C° 0.1 mm 4 mps 753 mmHg 85%
    08:00 +19°C° 0.1 mm 5 mps 753 mmHg 77%
    09:00 +20°C° 0.1 mm 5 mps 753 mmHg 69%
    10:00 +20°C° 0 mm 6 mps 753 mmHg 67%
    11:00 +21°C° 0 mm 6 mps 753 mmHg 65%
    12:00 +21°C° 0 mm 6 mps 753 mmHg 63%
    13:00 +22°C° 0 mm 7 mps 753 mmHg 61%
    14:00 +22°C° 0 mm 7 mps 753 mmHg 59%
    15:00 +23°C° 0 mm 8 mps 752 mmHg 57%
    16:00 +22°C° 0 mm 7 mps 752 mmHg 59%
    17:00 +22°C° 0 mm 6 mps 752 mmHg 62%
    18:00 +22°C° 0 mm 6 mps 752 mmHg 64%
    19:00 +20°C° 0.2 mm 5 mps 752 mmHg 70%
    20:00 +19°C° 0.2 mm 5 mps 752 mmHg 75%
    21:00 +17°C° 0.2 mm 4 mps 752 mmHg 81%
    22:00 +17°C° 0.1 mm 4 mps 752 mmHg 83%
    23:00 +16°C° 0.1 mm 5 mps 752 mmHg 85%

    24 May, Friday

    Time Temperature Precipitation Wind Pressure Humidity
    00:00 +16°C° 0.1 mm 5 mps 752 mmHg 87%
    01:00 +15°C° 0 mm 4 mps 752 mmHg 89%
    02:00 +15°C° 0 mm 4 mps 752 mmHg 91%
    03:00 +15°C° 0 mm 4 mps 752 mmHg 92%
    04:00 +16°C° 0 mm 3 mps 752 mmHg 91%
    05:00 +16°C° 0 mm 3 mps 753 mmHg 90%
    06:00 +16°C° 0 mm 3 mps 753 mmHg 89%
    07:00 +18°C° 0 mm 3 mps 753 mmHg 81%
    08:00 +20°C° 0 mm 3 mps 753 mmHg 74%
    09:00 +22°C° 0 mm 3 mps 754 mmHg 67%
    10:00 +24°C° 0 mm 3 mps 754 mmHg 62%
    11:00 +25°C° 0 mm 3 mps 754 mmHg 56%
    12:00 +27°C° 0 mm 3 mps 754 mmHg 51%
    13:00 +27°C° 0 mm 3 mps 754 mmHg 50%
    14:00 +27°C° 0 mm 3 mps 753 mmHg 49%
    15:00 +28°C° 0 mm 3 mps 753 mmHg 48%
    16:00 +27°C° 0 mm 3 mps 753 mmHg 51%
    17:00 +27°C° 0 mm 3 mps 753 mmHg 54%
    18:00 +26°C° 0 mm 3 mps 753 mmHg 57%
    19:00 +24°C° 0 mm 2 mps 753 mmHg 61%
    20:00 +21°C° 0 mm 2 mps 753 mmHg 66%
    21:00 +21°C° 0 mm 1 mps 753 mmHg 70%
    22:00 +20°C° 0 mm 1 mps 753 mmHg 71%
    23:00 +18°C° 0 mm 0 mps 753 mmHg 71%

    25 May, Saturday

    Time Temperature Precipitation Wind Pressure Humidity
    00:00 +17°C° 0 mm 0 mps 753 mmHg 72%
    01:00 +17°C° 0 mm 0 mps 753 mmHg 73%
    02:00 +19°C° 0 mm 1 mps 753 mmHg 73%
    03:00 +19°C° 0 mm 1 mps 753 mmHg 74%
    04:00 +18°C° 0 mm 2 mps 752 mmHg 76%
    05:00 +18°C° 0 mm 2 mps 752 mmHg 77%
    06:00 +18°C° 0 mm 3 mps 752 mmHg 79%
    07:00 +20°C° 0 mm 3 mps 752 mmHg 74%
    08:00 +22°C° 0 mm 4 mps 752 mmHg 69%
    09:00 +25°C° 0 mm 4 mps 752 mmHg 65%
    10:00 +25°C° 0.1 mm 4 mps 752 mmHg 65%
    11:00 +25°C° 0.1 mm 4 mps 752 mmHg 65%
    12:00 +25°C° 0.1 mm 5 mps 751 mmHg 66%
    13:00 +26°C° 0 mm 5 mps 751 mmHg 63%
    14:00 +26°C° 0 mm 5 mps 751 mmHg 60%
    15:00 +27°C° 0 mm 6 mps 750 mmHg 56%
    16:00 +27°C° 0 mm 5 mps 750 mmHg 59%
    17:00 +26°C° 0 mm 4 mps 749 mmHg 62%
    18:00 +26°C° 0 mm 3 mps 749 mmHg 65%
    19:00 +25°C° 2.7 mm 2 mps 748 mmHg 71%
    20:00 +24°C° 2.7 mm 2 mps 748 mmHg 77%
    21:00 +22°C° 2.7 mm 1 mps 748 mmHg 82%
    22:00 +21°C° 0.9 mm 2 mps 748 mmHg 83%
    23:00 +20°C° 0.9 mm 3 mps 748 mmHg 84%

    26 May, Sunday

    Time Temperature Precipitation Wind Pressure Humidity
    00:00 +19°C° 0.9 mm 4 mps 748 mmHg 85%
    01:00 +19°C° 0 mm 4 mps 748 mmHg 87%
    02:00 +17°C° 0 mm 5 mps 748 mmHg 89%
    03:00 +16°C° 0 mm 6 mps 749 mmHg 91%
    04:00 +16°C° 0 mm 6 mps 749 mmHg 90%
    05:00 +16°C° 0 mm 6 mps 749 mmHg 90%
    06:00 +16°C° 0 mm 7 mps 750 mmHg 89%
    07:00 +18°C° 0 mm 7 mps 750 mmHg 84%
    08:00 +20°C° 0 mm 8 mps 750 mmHg 78%
    09:00 +21°C° 0 mm 8 mps 750 mmHg 72%
    10:00 +21°C° 0.2 mm 9 mps 750 mmHg 70%
    11:00 +22°C° 0.2 mm 9 mps 750 mmHg 69%
    12:00 +22°C° 0.2 mm 9 mps 750 mmHg 67%
    13:00 +22°C° 0.4 mm 9 mps 750 mmHg 66%
    14:00 +23°C° 0.4 mm 9 mps 751 mmHg 65%
    15:00 +23°C° 0.4 mm 9 mps 751 mmHg 64%
    16:00 +23°C° 0.2 mm 9 mps 751 mmHg 66%
    17:00 +22°C° 0.2 mm 8 mps 751 mmHg 69%
    18:00 +22°C° 0.2 mm 7 mps 751 mmHg 71%
    19:00 +21°C° 0 mm 6 mps 752 mmHg 74%
    20:00 +20°C° 0 mm 5 mps 752 mmHg 77%
    21:00 +19°C° 0 mm 4 mps 753 mmHg 80%
    22:00 +18°C° 0 mm 4 mps 753 mmHg 82%
    23:00 +18°C° 0 mm 4 mps 753 mmHg 84%
    Show more